EFTP Weather Reports


time (UTC)temp
C
wind
direction
speed
KPH
gust
KPH
rain 1hr
cm
rain 24hr
cm
rain mn
cm
humidity
%
barometer
mb
20260503190710 9 278 11.3 16.1 0.00 0.00 0.00 37 1008.0
20260503184710 10 276 9.7 14.5 0.00 0.00 0.00 34 1008.0
20260503182710 10 270 11.3 16.1 0.00 0.00 0.00 32 1007.9
20260503180710 10 279 11.3 16.1 0.00 0.00 0.00 30 1007.8
20260503174710 11 272 11.3 16.1 0.00 0.00 0.00 31 1007.7
20260503172716 11 279 12.9 19.3 0.00 0.00 0.00 32 1007.4
20260503170710 11 279 14.5 17.7 0.00 0.00 0.00 32 1007.4
20260503150709 13 252 19.3 25.7 0.00 0.00 0.00 36 1007.5
20260503130709 12 249 16.1 27.4 0.00 0.00 0.00 43 1008.1
20260503110709 10 326 12.9 20.9 0.00 0.00 0.00 61 1008.4
20260503080708 10 312 8.0 16.1 0.00 0.00 0.00 61 1007.8
20260503072708 10 325 8.0 19.3 0.00 0.00 0.00 67 1007.5
20260503070708 8 339 9.7 16.1 0.00 0.00 0.00 68 1007.3
20260503054708 8 356 9.7 14.5 0.00 0.00 0.00 77 1006.8
20260503052708 7 8 9.7 16.1 0.00 0.00 0.00 78 1006.7
20260503050707 7 338 6.4 9.7 0.00 0.00 0.00 86 1006.7
20260503044707 7 27 6.4 11.3 0.00 0.00 0.00 83 1006.6
20260503042707 7 23 6.4 11.3 0.00 0.00 0.00 81 1006.3
20260503040707 7 355 6.4 11.3 0.00 0.00 0.00 82 1006.6
20260503034707 8 356 9.7 12.9 0.00 0.00 0.00 77 1006.3
20260503032707 8 18 11.3 17.7 0.00 0.00 0.00 71 1005.9
20260503030707 8 15 9.7 16.1 0.00 0.00 0.00 68 1005.7
20260503024708 8 4 9.7 17.7 0.00 0.00 0.00 68 1005.6
20260503022707 9 5 8.0 14.5 0.00 0.00 0.00 64 1005.6
20260503020707 10 349 8.0 12.9 0.00 0.00 0.00 60 1005.5
20260503014707 10 344 8.0 11.3 0.00 0.00 0.00 58 1005.3
20260503012707 10 339 6.4 8.0 0.00 0.00 0.00 57 1005.3
20260503010707 10 335 8.0 14.5 0.00 0.00 0.00 55 1005.3
20260503004707 10 336 9.7 16.1 0.00 0.00 0.00 57 1005.5
20260503002707 9 262 3.2 4.8 0.00 0.00 0.00 59 1005.1
20260503000707 10 280 3.2 3.2 0.00 0.00 0.00 58 1005.3
20260502234707 10 293 3.2 8.0 0.00 0.00 0.00 58 1005.4
20260502232706 9 195 1.6 3.2 0.00 0.00 0.00 60 1005.3
20260502230706 10 120 1.6 3.2 0.00 0.00 0.00 56 1005.5
20260502224707 10 233 1.6 3.2 0.00 0.00 0.00 57 1005.8
20260502222707 10 205 3.2 4.8 0.00 0.00 0.00 56 1005.8
20260502220707 10 212 3.2 6.4 0.00 0.00 0.00 51 1005.9
20260502214706 11 131 1.6 4.8 0.00 0.00 0.00 51 1005.9
20260502212706 10 329 1.6 6.4 0.00 0.00 0.00 56 1006.0
20260502210706 10 19 6.4 8.0 0.00 0.00 0.00 51 1006.1
20260502204707 10 110 3.2 4.8 0.00 0.00 0.00 60 1006.3
20260502202706 11 67 3.2 6.4 0.00 0.00 0.00 50 1006.4
20260502200706 11 120 3.2 8.0 0.00 0.00 0.00 52 1006.6
20260502194706 11 249 8.0 9.7 0.00 0.00 0.00 46 1007.0
20260502192706 12 272 8.0 11.3 0.00 0.00 0.00 44 1006.8